Aeroporto :
LOGIN :

Iscrizione | Disclaimer

   EN    FR    IT 

 










Sommario :    VFR   VFR Marginale   IFR   IFR Intensivo   IFR Molto Intensivo
Visibilità : 
Base nubi : 
>= 8 km
>= 3000ft
5 / 8 km
1000 / 3000 ft
1500m / 5 km
500 / 1000 ft
800 / 1500m
200 / 500 ft
< 800m
< 200 ft
Simboli :   Temporali  Nebbia  Neve Forte  Precipitazioni Forti  Vento > 20 kt
SIGMETs :   Varie  Temporali  Ghiacco  Turbolenza  Onda orograficha  Ceneri Vulcaniche







- Altitudine del aeroporto : 290 ft
- Codice IATA : LAI
- Carte del aeroporto


LFRO - Lannion

ULTIMO METAR :
  • 201730Z AUTO 02008KT 350V060 9000 NSC 15/08 Q1025

METARs OBSOLETI :
  • 201700Z AUTO 02006KT 350V090 8000 NSC 15/09 Q1026
  • 201630Z AUTO 02008KT 350V070 9000 NSC 16/09 Q1026
  • 201600Z AUTO 02007KT 350V060 8000 NSC 16/10 Q1026
  • 201530Z AUTO 01008KT 340V040 CAVOK 16/09 Q1026
  • 201500Z AUTO 01008KT CAVOK 16/10 Q1026

Previsioni scadute.
Nessun NOTAM noto per questo aeroporto.



MetMap, La meteo Aeronautica in un colpo d'occhio ! - Copyright ORBIFLY Dicembre 2007 - Disclaimer

ORBIFLY MET'MAP TEAM :

Programmazione e sviluppo : Alexandra Zaïnal
Concezione e sviluppo : Baudouin d'Aumeries
Co-Programmazione e sviluppo : Marc-Olivier Méhu
Supporto tecnico e logistico : Manuel Goepfert
Aiuto per la traduzione : Arnaldo La Scala

Contatto : metmap@orbifly.com




FONTI E CREDITI :

   NOAA